Time,TemperatureF,DewpointF,PressureIn,WindDirection,WindDirectionDegrees,WindSpeedMPH,WindSpeedGustMPH,Humidity,HourlyPrecipIn,Conditions,Clouds,dailyrainin,SoftwareType,DateUTC
2013-08-06 00:01:00,68.3,64.9,29.72,WNW,290,0.0,0.0,89,0.00,,---,0.12,VWS V14.01,2013-08-06 05:01:00,
2013-08-06 00:11:00,67.9,64.5,29.72,WNW,290,0.0,0.0,89,0.00,,---,0.00,VWS V14.01,2013-08-06 05:11:00,
2013-08-06 00:21:00,67.4,64.4,29.73,WNW,290,0.0,0.0,90,0.00,,---,0.00,VWS V14.01,2013-08-06 05:21:00,
2013-08-06 00:26:00,67.1,64.1,29.73,WNW,290,0.0,0.0,90,0.00,,---,0.00,VWS V14.01,2013-08-06 05:26:00,
2013-08-06 00:31:00,66.8,63.5,29.72,WNW,290,0.0,0.0,89,0.00,,---,0.00,VWS V14.01,2013-08-06 05:31:00,
2013-08-06 00:41:00,66.3,63.3,29.73,WNW,290,0.0,0.0,90,0.00,,---,0.00,VWS V14.01,2013-08-06 05:41:00,
2013-08-06 00:46:00,66.0,63.0,29.74,WNW,290,0.0,0.0,90,0.00,,---,0.00,VWS V14.01,2013-08-06 05:46:00,
2013-08-06 00:56:00,65.5,62.5,29.74,WNW,290,0.0,0.0,90,0.00,,---,0.00,VWS V14.01,2013-08-06 05:56:00,
2013-08-06 01:01:00,65.2,62.2,29.73,WNW,290,0.0,0.0,90,0.00,,---,0.00,VWS V14.01,2013-08-06 06:01:00,
2013-08-06 01:06:00,65.0,62.3,29.73,WNW,290,0.0,0.0,91,0.00,,---,0.00,VWS V14.01,2013-08-06 06:06:00,
2013-08-06 01:11:00,64.8,61.8,29.73,WNW,290,0.0,0.0,90,0.00,,---,0.00,VWS V14.01,2013-08-06 06:11:00,
2013-08-06 01:16:00,64.5,61.5,29.73,WNW,290,0.0,0.0,90,0.00,,---,0.00,VWS V14.01,2013-08-06 06:16:00,
2013-08-06 01:21:00,64.3,61.6,29.73,WNW,290,0.0,0.0,91,0.00,,---,0.00,VWS V14.01,2013-08-06 06:21:00,
2013-08-06 01:26:00,64.3,61.6,29.73,WNW,290,0.0,0.0,91,0.00,,---,0.00,VWS V14.01,2013-08-06 06:26:00,
2013-08-06 01:31:00,64.2,61.5,29.73,WNW,290,0.0,0.0,91,0.00,,---,0.00,VWS V14.01,2013-08-06 06:31:00,
2013-08-06 01:41:00,63.9,61.2,29.73,WNW,290,0.0,0.0,91,0.00,,---,0.00,VWS V14.01,2013-08-06 06:41:00,
2013-08-06 01:51:00,63.4,60.7,29.73,WNW,290,0.0,0.0,91,0.00,,---,0.00,VWS V14.01,2013-08-06 06:51:00,
2013-08-06 01:56:00,63.2,60.5,29.73,WNW,290,0.0,0.0,91,0.00,,---,0.00,VWS V14.01,2013-08-06 06:56:00,
2013-08-06 02:01:00,63.1,60.4,29.72,WNW,290,0.0,0.0,91,0.00,,---,0.00,VWS V14.01,2013-08-06 07:01:00,
2013-08-06 02:06:00,62.9,60.2,29.72,WNW,290,0.0,0.0,91,0.00,,---,0.00,VWS V14.01,2013-08-06 07:06:00,
2013-08-06 02:16:00,62.6,59.9,29.72,WNW,290,0.0,0.0,91,0.00,,---,0.00,VWS V14.01,2013-08-06 07:16:00,
2013-08-06 02:21:00,62.6,60.2,29.73,WNW,290,0.0,0.0,92,0.00,,---,0.00,VWS V14.01,2013-08-06 07:21:00,
2013-08-06 02:26:00,62.6,60.2,29.73,WNW,290,0.0,0.0,92,0.00,,---,0.00,VWS V14.01,2013-08-06 07:26:00,
2013-08-06 02:31:00,62.6,60.2,29.72,WNW,290,0.0,0.0,92,0.00,,---,0.00,VWS V14.01,2013-08-06 07:31:00,
2013-08-06 02:41:00,62.4,60.0,29.72,WNW,290,0.0,0.0,92,0.00,,---,0.00,VWS V14.01,2013-08-06 07:41:00,
2013-08-06 02:46:00,62.4,60.0,29.71,WNW,290,0.0,0.0,92,0.00,,---,0.00,VWS V14.01,2013-08-06 07:46:00,
2013-08-06 02:56:00,62.4,60.0,29.71,WNW,290,0.0,0.0,92,0.00,,---,0.00,VWS V14.01,2013-08-06 07:56:00,
2013-08-06 03:01:00,62.4,60.0,29.71,WNW,290,0.0,0.0,92,0.00,,---,0.00,VWS V14.01,2013-08-06 08:01:00,
2013-08-06 03:06:00,62.3,60.0,29.71,WNW,290,0.0,0.0,92,0.00,,---,0.00,VWS V14.01,2013-08-06 08:06:00,
2013-08-06 03:16:00,62.1,60.1,29.70,WNW,290,0.0,0.0,93,0.00,,---,0.00,VWS V14.01,2013-08-06 08:16:00,
2013-08-06 03:21:00,62.3,60.2,29.70,WNW,290,0.0,0.0,93,0.00,,---,0.00,VWS V14.01,2013-08-06 08:21:00,
2013-08-06 03:26:00,62.1,60.1,29.70,WNW,290,0.0,0.0,93,0.00,,---,0.00,VWS V14.01,2013-08-06 08:26:00,
2013-08-06 03:31:00,62.1,60.1,29.70,WNW,290,0.0,0.0,93,0.00,,---,0.00,VWS V14.01,2013-08-06 08:31:00,
2013-08-06 03:36:00,62.3,60.2,29.70,WNW,294,0.0,0.0,93,0.00,,---,0.00,VWS V14.01,2013-08-06 08:36:00,
2013-08-06 03:41:00,62.4,60.3,29.70,NW,306,0.0,0.0,93,0.00,,---,0.00,VWS V14.01,2013-08-06 08:41:00,
2013-08-06 03:46:00,62.4,60.3,29.70,NNW,330,0.0,0.0,93,0.00,,---,0.00,VWS V14.01,2013-08-06 08:46:00,
2013-08-06 03:51:00,62.4,60.3,29.70,NNW,330,0.0,0.0,93,0.00,,---,0.00,VWS V14.01,2013-08-06 08:51:00,
2013-08-06 03:56:00,62.4,60.3,29.70,NNW,330,0.0,0.0,93,0.00,,---,0.00,VWS V14.01,2013-08-06 08:56:00,
2013-08-06 04:01:00,62.4,60.7,29.70,NNW,330,0.0,0.0,94,0.00,,---,0.00,VWS V14.01,2013-08-06 09:01:00,
2013-08-06 04:06:00,62.4,60.7,29.70,NNW,330,0.0,0.0,94,0.00,,---,0.00,VWS V14.01,2013-08-06 09:06:00,
2013-08-06 04:11:00,62.4,60.7,29.69,NNW,330,0.0,0.0,94,0.00,,---,0.00,VWS V14.01,2013-08-06 09:11:00,
2013-08-06 04:21:00,62.3,60.6,29.69,NNW,330,0.0,0.0,94,0.00,,---,0.00,VWS V14.01,2013-08-06 09:21:00,
2013-08-06 04:26:00,62.1,60.4,29.70,NNW,330,0.0,0.0,94,0.00,,---,0.00,VWS V14.01,2013-08-06 09:26:00,
2013-08-06 04:36:00,61.8,60.1,29.70,NNW,330,0.0,0.0,94,0.00,,---,0.00,VWS V14.01,2013-08-06 09:36:00,
2013-08-06 04:41:00,61.6,59.9,29.69,NNW,330,0.0,0.0,94,0.00,,---,0.00,VWS V14.01,2013-08-06 09:41:00,
2013-08-06 04:46:00,61.6,59.9,29.69,NNW,330,0.0,0.0,94,0.00,,---,0.00,VWS V14.01,2013-08-06 09:46:00,
2013-08-06 04:56:00,61.3,59.6,29.70,NNW,330,0.0,0.0,94,0.00,,---,0.00,VWS V14.01,2013-08-06 09:56:00,
2013-08-06 05:01:00,61.2,59.5,29.70,NNW,330,0.0,0.0,94,0.00,,---,0.00,VWS V14.01,2013-08-06 10:01:00,
2013-08-06 05:06:00,61.0,59.3,29.71,NNW,330,0.0,0.0,94,0.00,,---,0.00,VWS V14.01,2013-08-06 10:06:00,
2013-08-06 05:11:00,60.7,59.0,29.71,NNW,330,0.0,0.0,94,0.00,,---,0.00,VWS V14.01,2013-08-06 10:11:00,
2013-08-06 05:16:00,60.5,58.8,29.72,NNW,330,0.0,0.0,94,0.00,,---,0.00,VWS V14.01,2013-08-06 10:16:00,
2013-08-06 05:26:00,60.1,58.4,29.72,NNW,330,0.0,0.0,94,0.00,,---,0.00,VWS V14.01,2013-08-06 10:26:00,
2013-08-06 05:31:00,60.1,58.4,29.71,NNW,330,0.0,0.0,94,0.00,,---,0.00,VWS V14.01,2013-08-06 10:31:00,
2013-08-06 05:41:00,60.2,58.5,29.70,NNW,330,0.0,0.0,94,0.00,,---,0.00,VWS V14.01,2013-08-06 10:41:00,
2013-08-06 05:46:00,60.1,58.4,29.69,NNW,330,0.0,0.0,94,0.00,,---,0.00,VWS V14.01,2013-08-06 10:46:00,
2013-08-06 05:51:00,60.2,58.8,29.69,NNW,330,0.0,0.0,95,0.00,,---,0.00,VWS V14.01,2013-08-06 10:51:00,
2013-08-06 05:56:00,60.5,59.1,29.69,NNW,330,0.0,0.0,95,0.00,,---,0.00,VWS V14.01,2013-08-06 10:56:00,
2013-08-06 06:01:00,60.9,59.5,29.69,NNW,330,0.0,0.0,95,0.00,,---,0.00,VWS V14.01,2013-08-06 11:01:00,
2013-08-06 06:06:00,60.9,59.5,29.70,NNW,330,0.0,0.0,95,0.00,,---,0.00,VWS V14.01,2013-08-06 11:06:00,
2013-08-06 06:11:00,60.4,58.7,29.70,NNW,330,0.0,0.0,94,0.00,,---,0.00,VWS V14.01,2013-08-06 11:11:00,
2013-08-06 06:16:00,60.1,58.7,29.71,NNW,330,0.0,0.0,95,0.00,,---,0.00,VWS V14.01,2013-08-06 11:16:00,
2013-08-06 06:26:00,59.8,58.4,29.72,NNW,330,0.0,0.0,95,0.00,,---,0.00,VWS V14.01,2013-08-06 11:26:00,
2013-08-06 06:31:00,59.5,58.1,29.71,NNW,330,0.0,0.0,95,0.00,,---,0.00,VWS V14.01,2013-08-06 11:31:00,
2013-08-06 06:36:00,59.5,58.1,29.72,NNW,330,0.0,0.0,95,0.00,,---,0.00,VWS V14.01,2013-08-06 11:36:00,
2013-08-06 06:46:00,59.3,57.9,29.72,NNW,330,0.0,0.0,95,0.00,,---,0.00,VWS V14.01,2013-08-06 11:46:00,
2013-08-06 06:56:00,59.6,58.2,29.72,NNW,330,0.0,0.0,95,0.00,,---,0.00,VWS V14.01,2013-08-06 11:56:00,
2013-08-06 07:01:00,59.9,58.5,29.72,NNW,330,0.0,0.0,95,0.00,,---,0.00,VWS V14.01,2013-08-06 12:01:00,
2013-08-06 07:06:00,60.5,59.4,29.73,NNW,330,0.0,0.0,96,0.00,,---,0.00,VWS V14.01,2013-08-06 12:06:00,
2013-08-06 07:11:00,61.2,60.0,29.73,NNW,330,0.0,0.0,96,0.00,,---,0.00,VWS V14.01,2013-08-06 12:11:00,
2013-08-06 07:16:00,61.6,60.5,29.73,NNW,330,0.0,0.0,96,0.00,,---,0.00,VWS V14.01,2013-08-06 12:16:00,
2013-08-06 07:21:00,62.1,61.0,29.72,NNW,330,0.0,0.0,96,0.00,,---,0.00,VWS V14.01,2013-08-06 12:21:00,
2013-08-06 07:26:00,62.7,61.5,29.72,NNW,330,0.0,0.0,96,0.00,,---,0.00,VWS V14.01,2013-08-06 12:26:00,
2013-08-06 07:36:00,63.7,62.5,29.73,NNW,330,0.0,0.0,96,0.00,,---,0.00,VWS V14.01,2013-08-06 12:36:00,
2013-08-06 07:41:00,64.0,62.8,29.73,NNW,330,0.0,0.0,96,0.00,,---,0.00,VWS V14.01,2013-08-06 12:41:00,
2013-08-06 07:46:00,64.3,63.1,29.74,WNW,284,0.0,0.0,96,0.00,,---,0.00,VWS V14.01,2013-08-06 12:46:00,
2013-08-06 07:51:00,64.7,63.5,29.74,WSW,242,0.0,0.0,96,0.00,,---,0.00,VWS V14.01,2013-08-06 12:51:00,
2013-08-06 07:56:00,64.8,63.6,29.74,WSW,242,0.0,0.0,96,0.00,,---,0.00,VWS V14.01,2013-08-06 12:56:00,
2013-08-06 08:06:00,65.0,63.8,29.73,WSW,242,0.0,0.0,96,0.00,,---,0.00,VWS V14.01,2013-08-06 13:06:00,
2013-08-06 08:11:00,65.5,64.3,29.73,WSW,242,0.0,0.0,96,0.00,,---,0.00,VWS V14.01,2013-08-06 13:11:00,
2013-08-06 08:16:00,66.3,65.1,29.73,SW,229,0.0,0.0,96,0.00,,---,0.00,VWS V14.01,2013-08-06 13:16:00,
2013-08-06 08:21:00,66.6,65.4,29.73,SW,227,0.0,0.0,96,0.00,,---,0.00,VWS V14.01,2013-08-06 13:21:00,
2013-08-06 08:26:00,67.1,65.9,29.73,SW,229,0.0,0.0,96,0.00,,---,0.00,VWS V14.01,2013-08-06 13:26:00,
2013-08-06 08:36:00,67.4,66.2,29.74,SW,222,0.0,0.0,96,0.00,,---,0.00,VWS V14.01,2013-08-06 13:36:00,
2013-08-06 08:46:00,68.4,66.9,29.74,SW,216,0.0,0.0,95,0.00,,---,0.00,VWS V14.01,2013-08-06 13:46:00,
2013-08-06 08:51:00,68.9,67.4,29.74,SW,215,0.0,0.0,95,0.00,,---,0.00,VWS V14.01,2013-08-06 13:51:00,
2013-08-06 08:56:00,69.1,67.6,29.73,SW,217,0.0,0.0,95,0.00,,---,0.00,VWS V14.01,2013-08-06 13:56:00,
2013-08-06 09:01:00,69.4,67.6,29.74,SW,221,0.0,0.0,94,0.00,,---,0.00,VWS V14.01,2013-08-06 14:01:00,
2013-08-06 09:11:00,69.9,68.1,29.74,SW,221,0.0,0.0,94,0.00,,---,0.00,VWS V14.01,2013-08-06 14:11:00,
2013-08-06 09:16:00,70.3,68.2,29.74,SW,225,0.0,0.0,93,0.00,,---,0.00,VWS V14.01,2013-08-06 14:16:00,
2013-08-06 09:21:00,70.8,68.7,29.74,SW,225,0.0,0.0,93,0.00,,---,0.00,VWS V14.01,2013-08-06 14:21:00,
2013-08-06 09:26:00,70.9,68.8,29.74,SSW,202,0.0,0.0,93,0.00,,---,0.00,VWS V14.01,2013-08-06 14:26:00,
2013-08-06 09:31:00,71.3,69.2,29.74,SSW,207,0.0,0.0,93,0.00,,---,0.00,VWS V14.01,2013-08-06 14:31:00,
2013-08-06 09:36:00,71.5,69.1,29.73,SSW,203,0.0,0.0,92,0.00,,---,0.00,VWS V14.01,2013-08-06 14:36:00,
2013-08-06 09:46:00,72.1,69.7,29.72,SSW,209,1.0,1.0,92,0.00,,---,0.00,VWS V14.01,2013-08-06 14:46:00,
2013-08-06 09:56:00,72.7,69.9,29.71,SW,221,0.0,2.0,91,0.00,,---,0.00,VWS V14.01,2013-08-06 14:56:00,
2013-08-06 10:01:00,72.5,69.4,29.71,SW,216,0.0,1.0,90,0.00,,---,0.00,VWS V14.01,2013-08-06 15:01:00,
2013-08-06 10:06:00,72.5,69.4,29.71,SSW,206,0.0,1.0,90,0.00,,---,0.00,VWS V14.01,2013-08-06 15:06:00,
2013-08-06 10:11:00,72.3,68.9,29.71,SSW,196,0.0,2.0,89,0.00,,---,0.00,VWS V14.01,2013-08-06 15:11:00,
2013-08-06 10:21:00,72.5,69.1,29.70,SW,220,0.0,3.0,89,0.00,,---,0.00,VWS V14.01,2013-08-06 15:21:00,
2013-08-06 10:31:00,72.3,68.6,29.70,NW,316,0.0,9.0,88,0.00,,---,0.00,VWS V14.01,2013-08-06 15:31:00,
2013-08-06 10:41:00,72.3,68.2,29.70,South,173,0.0,4.0,87,0.00,,---,0.00,VWS V14.01,2013-08-06 15:41:00,
2013-08-06 10:46:00,72.5,68.4,29.68,SE,129,0.0,2.0,87,0.00,,---,0.00,VWS V14.01,2013-08-06 15:46:00,
2013-08-06 10:51:00,72.8,68.7,29.68,South,171,1.0,5.0,87,0.00,,---,0.00,VWS V14.01,2013-08-06 15:51:00,
2013-08-06 10:56:00,73.2,68.8,29.67,ESE,116,1.0,7.0,86,0.00,,---,0.00,VWS V14.01,2013-08-06 15:56:00,
2013-08-06 11:06:00,74.4,69.3,29.66,ESE,105,0.0,5.0,84,0.00,,---,0.00,VWS V14.01,2013-08-06 16:06:00,
2013-08-06 11:16:00,74.9,69.4,29.66,South,178,0.0,3.0,83,0.00,,---,0.00,VWS V14.01,2013-08-06 16:16:00,
2013-08-06 11:21:00,75.1,69.2,29.65,SW,234,0.0,5.0,82,0.00,,---,0.00,VWS V14.01,2013-08-06 16:21:00,
2013-08-06 11:31:00,75.3,68.3,29.63,ESE,108,10.0,11.0,79,0.00,,---,0.00,VWS V14.01,2013-08-06 16:31:00,
2013-08-06 11:36:00,75.8,69.2,29.63,ESE,109,1.0,10.0,80,0.00,,---,0.00,VWS V14.01,2013-08-06 16:36:00,
2013-08-06 11:41:00,76.3,69.3,29.63,East,99,2.0,10.0,79,0.00,,---,0.00,VWS V14.01,2013-08-06 16:41:00,
2013-08-06 11:46:00,76.8,69.8,29.64,South,173,0.0,4.0,79,0.00,,---,0.00,VWS V14.01,2013-08-06 16:46:00,
2013-08-06 11:51:00,77.0,69.2,29.64,South,171,0.0,1.0,77,0.00,,---,0.00,VWS V14.01,2013-08-06 16:51:00,
2013-08-06 12:01:00,77.4,69.2,29.65,SSW,192,0.0,11.0,76,0.00,,---,0.00,VWS V14.01,2013-08-06 17:01:00,
2013-08-06 12:06:00,78.1,69.1,29.66,South,169,0.0,3.0,74,0.00,,---,0.00,VWS V14.01,2013-08-06 17:06:00,
2013-08-06 12:16:00,79.6,71.0,29.68,SSW,213,0.0,0.0,75,0.00,,---,0.00,VWS V14.01,2013-08-06 17:16:00,
2013-08-06 12:26:00,81.6,71.7,29.67,SW,226,0.0,0.0,72,0.00,,---,0.00,VWS V14.01,2013-08-06 17:26:00,
2013-08-06 12:31:00,81.8,71.1,29.67,SW,226,0.0,0.0,70,0.00,,---,0.00,VWS V14.01,2013-08-06 17:31:00,
2013-08-06 12:36:00,81.8,70.6,29.67,SW,228,0.0,0.0,69,0.00,,---,0.00,VWS V14.01,2013-08-06 17:36:00,
2013-08-06 12:41:00,81.6,70.9,29.67,SW,231,0.0,0.0,70,0.00,,---,0.00,VWS V14.01,2013-08-06 17:41:00,
2013-08-06 12:51:00,82.4,72.5,29.67,SW,234,0.0,0.0,72,0.00,,---,0.00,VWS V14.01,2013-08-06 17:51:00,
2013-08-06 12:56:00,82.4,70.8,29.67,SW,235,0.0,0.0,68,0.00,,---,0.00,VWS V14.01,2013-08-06 17:56:00,
2013-08-06 13:06:00,82.0,69.1,29.67,SW,218,0.0,1.0,65,0.00,,---,0.00,VWS V14.01,2013-08-06 18:06:00,
2013-08-06 13:11:00,82.0,69.5,29.67,SW,221,0.0,1.0,66,0.00,,---,0.00,VWS V14.01,2013-08-06 18:11:00,
2013-08-06 13:16:00,82.2,69.3,29.67,SW,235,0.0,1.0,65,0.00,,---,0.00,VWS V14.01,2013-08-06 18:16:00,
2013-08-06 13:21:00,82.8,71.2,29.67,SW,235,0.0,0.0,68,0.00,,---,0.00,VWS V14.01,2013-08-06 18:21:00,
2013-08-06 13:26:00,83.2,70.2,29.67,WSW,239,0.0,0.0,65,0.00,,---,0.00,VWS V14.01,2013-08-06 18:26:00,
2013-08-06 13:31:00,83.2,69.8,29.67,SW,221,0.0,0.0,64,0.00,,---,0.00,VWS V14.01,2013-08-06 18:31:00,
2013-08-06 13:36:00,83.6,71.9,29.67,SW,224,0.0,0.0,68,0.00,,---,0.00,VWS V14.01,2013-08-06 18:36:00,
2013-08-06 13:41:00,83.6,70.6,29.67,SW,225,0.0,0.0,65,0.00,,---,0.00,VWS V14.01,2013-08-06 18:41:00,
2013-08-06 13:51:00,83.2,69.8,29.67,South,184,0.0,1.0,64,0.00,,---,0.00,VWS V14.01,2013-08-06 18:51:00,
2013-08-06 14:01:00,83.4,70.9,29.67,SW,221,0.0,1.0,66,0.00,,---,0.00,VWS V14.01,2013-08-06 19:01:00,
2013-08-06 14:11:00,84.1,69.2,29.67,WSW,240,0.0,0.0,61,0.00,,---,0.00,VWS V14.01,2013-08-06 19:11:00,
2013-08-06 14:16:00,84.0,70.5,29.67,SW,227,0.0,1.0,64,0.00,,---,0.00,VWS V14.01,2013-08-06 19:16:00,
2013-08-06 14:21:00,83.8,69.4,29.67,SW,229,0.0,0.0,62,0.00,,---,0.00,VWS V14.01,2013-08-06 19:21:00,
2013-08-06 14:31:00,84.0,70.1,29.67,WSW,246,0.0,1.0,63,0.00,,---,0.00,VWS V14.01,2013-08-06 19:31:00,
2013-08-06 14:36:00,84.0,70.1,29.67,WSW,242,0.0,1.0,63,0.00,,---,0.00,VWS V14.01,2013-08-06 19:36:00,
2013-08-06 14:41:00,84.1,70.6,29.67,WSW,241,0.0,0.0,64,0.00,,---,0.00,VWS V14.01,2013-08-06 19:41:00,
2013-08-06 14:51:00,84.7,70.7,29.67,WSW,241,0.0,1.0,63,0.00,,---,0.00,VWS V14.01,2013-08-06 19:51:00,
2013-08-06 15:01:00,84.3,70.3,29.67,SW,223,0.0,1.0,63,0.00,,---,0.00,VWS V14.01,2013-08-06 20:01:00,
2013-08-06 15:06:00,84.5,71.4,29.67,SW,229,0.0,1.0,65,0.00,,---,0.00,VWS V14.01,2013-08-06 20:06:00,
2013-08-06 15:11:00,84.9,70.4,29.67,SW,234,0.0,1.0,62,0.00,,---,0.00,VWS V14.01,2013-08-06 20:11:00,
2013-08-06 15:21:00,84.9,68.0,29.67,WSW,238,0.0,2.0,57,0.00,,---,0.00,VWS V14.01,2013-08-06 20:21:00,
2013-08-06 15:26:00,84.9,69.0,29.67,SW,215,0.0,2.0,59,0.00,,---,0.00,VWS V14.01,2013-08-06 20:26:00,
2013-08-06 15:36:00,84.7,68.3,29.67,WSW,239,0.0,1.0,58,0.00,,---,0.00,VWS V14.01,2013-08-06 20:36:00,
2013-08-06 15:41:00,85.1,69.7,29.67,WSW,248,0.0,2.0,60,0.00,,---,0.00,VWS V14.01,2013-08-06 20:41:00,
2013-08-06 15:46:00,85.1,69.2,29.67,WSW,238,0.0,2.0,59,0.00,,---,0.00,VWS V14.01,2013-08-06 20:46:00,
2013-08-06 15:51:00,84.9,68.0,29.67,WSW,247,0.0,9.0,57,0.00,,---,0.00,VWS V14.01,2013-08-06 20:51:00,
2013-08-06 16:01:00,84.7,67.3,29.67,WSW,239,0.0,1.0,56,0.00,,---,0.00,VWS V14.01,2013-08-06 21:01:00,
2013-08-06 16:06:00,84.7,67.8,29.67,WSW,247,0.0,1.0,57,0.00,,---,0.00,VWS V14.01,2013-08-06 21:06:00,
2013-08-06 16:11:00,84.9,68.0,29.67,WSW,241,0.0,1.0,57,0.00,,---,0.00,VWS V14.01,2013-08-06 21:11:00,
2013-08-06 16:21:00,85.1,69.2,29.66,West,259,1.0,1.0,59,0.00,,---,0.00,VWS V14.01,2013-08-06 21:21:00,
2013-08-06 16:26:00,85.1,69.2,29.66,WSW,243,0.0,1.0,59,0.00,,---,0.00,VWS V14.01,2013-08-06 21:26:00,
2013-08-06 16:31:00,85.1,68.2,29.67,WSW,243,0.0,1.0,57,0.00,,---,0.00,VWS V14.01,2013-08-06 21:31:00,
2013-08-06 16:41:00,85.1,67.7,29.67,WSW,254,0.0,1.0,56,0.00,,---,0.00,VWS V14.01,2013-08-06 21:41:00,
2013-08-06 16:46:00,85.1,67.7,29.67,WSW,252,0.0,1.0,56,0.00,,---,0.00,VWS V14.01,2013-08-06 21:46:00,
2013-08-06 16:56:00,84.9,68.0,29.67,WSW,244,1.0,1.0,57,0.00,,---,0.00,VWS V14.01,2013-08-06 21:56:00,
2013-08-06 17:01:00,84.7,67.8,29.67,WSW,248,0.0,1.0,57,0.00,,---,0.00,VWS V14.01,2013-08-06 22:01:00,
2013-08-06 17:06:00,84.9,68.0,29.67,WSW,257,0.0,1.0,57,0.00,,---,0.00,VWS V14.01,2013-08-06 22:06:00,
2013-08-06 17:11:00,84.7,68.3,29.67,WSW,252,0.0,0.0,58,0.00,,---,0.00,VWS V14.01,2013-08-06 22:11:00,
2013-08-06 17:16:00,84.7,67.8,29.67,WSW,248,1.0,1.0,57,0.00,,---,0.00,VWS V14.01,2013-08-06 22:16:00,
2013-08-06 17:21:00,84.5,68.1,29.66,SW,228,0.0,1.0,58,0.00,,---,0.00,VWS V14.01,2013-08-06 22:21:00,
2013-08-06 17:26:00,84.5,67.6,29.67,WSW,243,1.0,1.0,57,0.00,,---,0.00,VWS V14.01,2013-08-06 22:26:00,
2013-08-06 17:31:00,84.3,66.9,29.67,WSW,252,0.0,2.0,56,0.00,,---,0.00,VWS V14.01,2013-08-06 22:31:00,
2013-08-06 17:36:00,84.3,67.4,29.67,WSW,243,0.0,1.0,57,0.00,,---,0.00,VWS V14.01,2013-08-06 22:36:00,
2013-08-06 17:41:00,84.1,67.7,29.67,WSW,246,0.0,1.0,58,0.00,,---,0.00,VWS V14.01,2013-08-06 22:41:00,
2013-08-06 17:51:00,84.1,67.2,29.67,WSW,244,0.0,1.0,57,0.00,,---,0.00,VWS V14.01,2013-08-06 22:51:00,
2013-08-06 17:56:00,84.1,68.2,29.67,WSW,242,0.0,1.0,59,0.00,,---,0.00,VWS V14.01,2013-08-06 22:56:00,
2013-08-06 18:26:00,83.2,69.3,29.66,WSW,242,0.0,1.0,63,0.00,,---,0.00,VWS V14.01,2013-08-06 23:26:00,
2013-08-06 18:31:00,83.2,69.3,29.66,WSW,242,0.0,2.0,63,0.00,,---,0.00,VWS V14.01,2013-08-06 23:31:00,
2013-08-06 18:36:00,83.2,69.8,29.66,WSW,238,0.0,1.0,64,0.00,,---,0.00,VWS V14.01,2013-08-06 23:36:00,
2013-08-06 18:46:00,83.2,70.2,29.65,SW,236,0.0,0.0,65,0.00,,---,0.00,VWS V14.01,2013-08-06 23:46:00,
2013-08-06 18:56:00,82.8,70.3,29.65,WSW,237,0.0,0.0,66,0.00,,---,0.00,VWS V14.01,2013-08-06 23:56:00,
2013-08-06 19:01:00,82.6,70.1,29.65,WSW,237,0.0,0.0,66,0.00,,---,0.00,VWS V14.01,2013-08-07 00:01:00,
2013-08-06 19:11:00,82.2,69.7,29.65,WSW,237,0.0,0.0,66,0.00,,---,0.00,VWS V14.01,2013-08-07 00:11:00,
2013-08-06 19:16:00,81.8,69.8,29.65,WSW,237,0.0,0.0,67,0.00,,---,0.00,VWS V14.01,2013-08-07 00:16:00,
2013-08-06 19:21:00,81.2,69.6,29.64,WSW,237,0.0,0.0,68,0.00,,---,0.00,VWS V14.01,2013-08-07 00:21:00,
2013-08-06 19:31:00,80.9,70.2,29.64,WSW,237,0.0,0.0,70,0.00,,---,0.00,VWS V14.01,2013-08-07 00:31:00,
2013-08-06 19:36:00,80.7,70.8,29.64,WSW,237,0.0,0.0,72,0.00,,---,0.00,VWS V14.01,2013-08-07 00:36:00,
2013-08-06 19:46:00,79.9,70.5,29.64,WSW,237,0.0,0.0,73,0.00,,---,0.00,VWS V14.01,2013-08-07 00:46:00,
2013-08-06 19:51:00,79.4,70.4,29.64,WSW,237,0.0,0.0,74,0.00,,---,0.00,VWS V14.01,2013-08-07 00:51:00,
2013-08-06 20:01:00,78.3,70.1,29.64,WSW,237,0.0,0.0,76,0.00,,---,0.00,VWS V14.01,2013-08-07 01:01:00,
2013-08-06 20:06:00,77.7,69.9,29.63,WSW,237,0.0,0.0,77,0.00,,---,0.00,VWS V14.01,2013-08-07 01:06:00,
2013-08-06 20:11:00,77.2,69.8,29.63,WSW,237,0.0,0.0,78,0.00,,---,0.00,VWS V14.01,2013-08-07 01:11:00,
2013-08-06 20:21:00,76.3,69.3,29.64,WSW,237,0.0,0.0,79,0.00,,---,0.00,VWS V14.01,2013-08-07 01:21:00,
2013-08-06 20:31:00,75.3,68.7,29.64,WSW,237,0.0,0.0,80,0.00,,---,0.00,VWS V14.01,2013-08-07 01:31:00,
2013-08-06 20:41:00,74.4,68.6,29.64,WSW,237,0.0,0.0,82,0.00,,---,0.00,VWS V14.01,2013-08-07 01:41:00,
2013-08-06 20:46:00,73.9,68.1,29.65,WSW,237,0.0,0.0,82,0.00,,---,0.00,VWS V14.01,2013-08-07 01:46:00,
2013-08-06 20:51:00,73.5,67.7,29.65,WSW,237,0.0,0.0,82,0.00,,---,0.00,VWS V14.01,2013-08-07 01:51:00,
2013-08-06 20:56:00,73.3,67.8,29.65,WSW,237,0.0,0.0,83,0.00,,---,0.00,VWS V14.01,2013-08-07 01:56:00,
2013-08-06 21:06:00,72.8,67.3,29.65,WSW,237,0.0,0.0,83,0.00,,---,0.00,VWS V14.01,2013-08-07 02:06:00,
2013-08-06 21:11:00,72.5,67.1,29.66,WSW,237,0.0,0.0,83,0.00,,---,0.00,VWS V14.01,2013-08-07 02:11:00,
2013-08-06 21:16:00,72.3,67.2,29.66,WSW,237,0.0,0.0,84,0.00,,---,0.00,VWS V14.01,2013-08-07 02:16:00,
2013-08-06 21:21:00,72.1,67.0,29.66,WSW,237,0.0,0.0,84,0.00,,---,0.00,VWS V14.01,2013-08-07 02:21:00,
2013-08-06 21:26:00,72.1,67.3,29.66,WSW,237,0.0,0.0,85,0.00,,---,0.00,VWS V14.01,2013-08-07 02:26:00,
2013-08-06 21:31:00,72.0,67.2,29.66,WSW,237,0.0,0.0,85,0.00,,---,0.00,VWS V14.01,2013-08-07 02:31:00,
2013-08-06 21:36:00,71.8,67.1,29.66,WSW,237,0.0,0.0,85,0.00,,---,0.00,VWS V14.01,2013-08-07 02:36:00,
2013-08-06 21:41:00,71.8,67.4,29.66,WSW,237,0.0,0.0,86,0.00,,---,0.00,VWS V14.01,2013-08-07 02:41:00,
2013-08-06 21:46:00,71.8,67.4,29.66,WSW,237,0.0,0.0,86,0.00,,---,0.00,VWS V14.01,2013-08-07 02:46:00,
2013-08-06 21:56:00,71.6,67.2,29.67,WSW,237,0.0,0.0,86,0.00,,---,0.00,VWS V14.01,2013-08-07 02:56:00,
2013-08-06 22:01:00,71.6,67.2,29.68,WSW,237,0.0,0.0,86,0.00,,---,0.00,VWS V14.01,2013-08-07 03:01:00,
2013-08-06 22:06:00,71.6,67.2,29.68,WSW,237,0.0,0.0,86,0.00,,---,0.00,VWS V14.01,2013-08-07 03:06:00,
2013-08-06 22:11:00,71.3,66.9,29.68,WSW,237,0.0,0.0,86,0.00,,---,0.00,VWS V14.01,2013-08-07 03:11:00,
2013-08-06 22:16:00,71.1,67.0,29.68,WSW,237,0.0,0.0,87,0.00,,---,0.00,VWS V14.01,2013-08-07 03:16:00,
2013-08-06 22:21:00,70.8,66.7,29.68,WSW,237,0.0,0.0,87,0.00,,---,0.00,VWS V14.01,2013-08-07 03:21:00,
2013-08-06 22:26:00,70.8,66.7,29.67,WSW,237,0.0,0.0,87,0.00,,---,0.00,VWS V14.01,2013-08-07 03:26:00,
2013-08-06 22:31:00,70.6,66.9,29.68,WSW,237,0.0,0.0,88,0.00,,---,0.00,VWS V14.01,2013-08-07 03:31:00,
2013-08-06 22:36:00,70.6,66.9,29.68,WSW,237,0.0,0.0,88,0.00,,---,0.00,VWS V14.01,2013-08-07 03:36:00,
2013-08-06 22:41:00,70.4,66.7,29.68,WSW,237,0.0,0.0,88,0.00,,---,0.00,VWS V14.01,2013-08-07 03:41:00,
2013-08-06 22:51:00,70.1,66.7,29.69,WSW,237,0.0,0.0,89,0.00,,---,0.00,VWS V14.01,2013-08-07 03:51:00,
2013-08-06 23:01:00,70.3,67.2,29.69,WSW,237,0.0,0.0,90,0.00,,---,0.00,VWS V14.01,2013-08-07 04:01:00,
2013-08-06 23:06:00,70.3,67.2,29.68,WSW,237,0.0,0.0,90,0.00,,---,0.00,VWS V14.01,2013-08-07 04:06:00,
2013-08-06 23:11:00,70.3,67.2,29.68,WSW,237,0.0,0.0,90,0.00,,---,0.00,VWS V14.01,2013-08-07 04:11:00,
2013-08-06 23:16:00,70.3,66.9,29.68,WSW,237,0.0,0.0,89,0.00,,---,0.00,VWS V14.01,2013-08-07 04:16:00,
2013-08-06 23:21:00,70.1,66.7,29.69,WSW,237,0.0,0.0,89,0.00,,---,0.00,VWS V14.01,2013-08-07 04:21:00,
2013-08-06 23:26:00,69.9,66.5,29.68,WSW,237,0.0,0.0,89,0.00,,---,0.00,VWS V14.01,2013-08-07 04:26:00,
2013-08-06 23:31:00,69.8,66.7,29.68,WSW,237,0.0,0.0,90,0.00,,---,0.00,VWS V14.01,2013-08-07 04:31:00,
2013-08-06 23:36:00,69.8,66.7,29.68,WSW,237,0.0,0.0,90,0.00,,---,0.00,VWS V14.01,2013-08-07 04:36:00,
2013-08-06 23:41:00,69.8,66.7,29.68,WSW,237,0.0,0.0,90,0.00,,---,0.00,VWS V14.01,2013-08-07 04:41:00,
2013-08-06 23:46:00,69.9,66.8,29.68,WSW,237,0.0,0.0,90,0.00,,---,0.00,VWS V14.01,2013-08-07 04:46:00,
2013-08-06 23:51:00,69.9,66.8,29.69,WSW,237,0.0,0.0,90,0.00,,---,0.00,VWS V14.01,2013-08-07 04:51:00,